MZN138 KJFK-KATL

Flight info

Callsign MZN138
Flight time 2h 1m
Altitude 40000
Route RBV Q430 BYRDD J48 MOL FLASK OZZZI2
Aircraft A333/H-SDE3GHIJ2J3J5M1RVWXY/LB2D1

Departure

Time 2026-05-07 01:37
Airport John F. Kennedy International Airport (KJFK)

Arrival

Time 2026-05-07 03:38
Airport Hartsfield Jackson Atlanta International Airport (KATL)
Time Latitude Longitude Altitude Speed Heading
2026-05-07 01:08 40.66098 -73.78469 25 ft 0 kts 31°
2026-05-07 01:25 40.66098 -73.78470 25 ft 1 kts 31°
2026-05-07 01:25 40.66077 -73.78486 31 ft 4 kts 31°
2026-05-07 01:26 40.66056 -73.78502 31 ft 4 kts 29°
2026-05-07 01:26 40.66034 -73.78511 31 ft 4 kts 336°
2026-05-07 01:26 40.66017 -73.78488 30 ft 4 kts 298°
2026-05-07 01:26 40.66011 -73.78473 31 ft 1 kts 300°
2026-05-07 01:27 40.66010 -73.78471 31 ft 0 kts 300°
2026-05-07 01:30 40.66012 -73.78475 31 ft 4 kts 300°
2026-05-07 01:30 40.66022 -73.78553 29 ft 11 kts 245°
2026-05-07 01:30 40.65951 -73.78618 31 ft 14 kts 208°
2026-05-07 01:31 40.65861 -73.78685 29 ft 16 kts 210°
2026-05-07 01:31 40.65762 -73.78695 26 ft 15 kts 139°
2026-05-07 01:31 40.65701 -73.78573 26 ft 17 kts 122°
2026-05-07 01:31 40.65638 -73.78439 27 ft 18 kts 121°
2026-05-07 01:32 40.65576 -73.78297 28 ft 18 kts 119°
2026-05-07 01:32 40.65513 -73.78150 30 ft 19 kts 120°
2026-05-07 01:32 40.65442 -73.78000 27 ft 20 kts 122°
2026-05-07 01:32 40.65371 -73.77843 30 ft 21 kts 120°
2026-05-07 01:33 40.65298 -73.77681 26 ft 21 kts 121°
2026-05-07 01:33 40.65221 -73.77510 27 ft 22 kts 120°
2026-05-07 01:33 40.65146 -73.77331 28 ft 23 kts 118°
2026-05-07 01:33 40.65063 -73.77155 29 ft 23 kts 122°
2026-05-07 01:34 40.64980 -73.76976 29 ft 23 kts 121°
2026-05-07 01:34 40.64915 -73.76840 28 ft 12 kts 122°
2026-05-07 01:34 40.64879 -73.76740 28 ft 12 kts 93°
2026-05-07 01:34 40.64931 -73.76658 31 ft 13 kts 31°
2026-05-07 01:35 40.65011 -73.76597 29 ft 14 kts 30°
2026-05-07 01:35 40.65096 -73.76501 28 ft 16 kts 77°
2026-05-07 01:35 40.65055 -73.76379 26 ft 11 kts 123°
2026-05-07 01:35 40.65010 -73.76368 30 ft 6 kts 210°
2026-05-07 01:36 40.64999 -73.76376 30 ft 6 kts 209°
2026-05-07 01:36 40.64798 -73.76529 31 ft 66 kts 210°
2026-05-07 01:36 40.64230 -73.76974 29 ft 124 kts 211°
2026-05-07 01:36 40.63329 -73.77672 59 ft 172 kts 210°
2026-05-07 01:37 40.62289 -73.78474 821 ft 169 kts 212°
2026-05-07 01:37 40.61320 -73.79233 1837 ft 159 kts 217°
2026-05-07 01:37 40.60358 -73.80042 2461 ft 168 kts 219°
2026-05-07 01:37 40.59358 -73.80928 3055 ft 177 kts 220°
2026-05-07 01:38 40.58326 -73.81889 3698 ft 186 kts 220°
2026-05-07 01:38 40.57207 -73.82864 4308 ft 199 kts 217°
2026-05-07 01:38 40.55929 -73.83763 4843 ft 216 kts 212°
2026-05-07 01:38 40.54589 -73.84693 5378 ft 225 kts 215°
2026-05-07 01:39 40.53212 -73.85761 5912 ft 235 kts 217°
2026-05-07 01:39 40.51768 -73.86920 6482 ft 247 kts 217°
2026-05-07 01:39 40.50290 -73.88105 7323 ft 249 kts 216°
2026-05-07 01:39 40.48802 -73.89282 8249 ft 249 kts 217°
2026-05-07 01:40 40.47319 -73.90457 9200 ft 249 kts 218°
2026-05-07 01:40 40.45857 -73.91619 10101 ft 249 kts 218°
2026-05-07 01:40 40.44378 -73.92907 10587 ft 262 kts 224°
2026-05-07 01:40 40.43078 -73.94676 10873 ft 278 kts 235°
2026-05-07 01:41 40.41928 -73.96833 11153 ft 297 kts 240°
2026-05-07 01:41 40.40858 -73.99230 11593 ft 310 kts 243°
2026-05-07 01:41 40.39834 -74.01748 12345 ft 314 kts 244°
2026-05-07 01:41 40.38828 -74.04307 13142 ft 317 kts 244°
2026-05-07 01:42 40.37809 -74.06900 13874 ft 321 kts 244°
2026-05-07 01:42 40.36784 -74.09477 14537 ft 324 kts 244°
2026-05-07 01:42 40.35724 -74.12107 15197 ft 328 kts 244°
2026-05-07 01:42 40.34641 -74.14763 15850 ft 332 kts 243°
2026-05-07 01:43 40.33538 -74.17446 16507 ft 335 kts 243°
2026-05-07 01:43 40.32419 -74.20157 17164 ft 339 kts 244°
2026-05-07 01:43 40.31288 -74.22891 17821 ft 342 kts 244°
2026-05-07 01:43 40.30148 -74.25644 18406 ft 346 kts 244°
2026-05-07 01:44 40.29013 -74.28386 19045 ft 345 kts 244°
2026-05-07 01:44 40.27868 -74.31148 19746 ft 344 kts 245°
2026-05-07 01:44 40.26723 -74.33904 20358 ft 344 kts 245°
2026-05-07 01:44 40.25574 -74.36668 20975 ft 345 kts 245°
2026-05-07 01:45 40.24427 -74.39434 21661 ft 343 kts 245°
2026-05-07 01:45 40.23285 -74.42185 22292 ft 343 kts 246°
2026-05-07 01:45 40.22530 -74.44002 22679 ft 344 kts 246°
2026-05-07 01:45 40.21140 -74.47723 23457 ft 342 kts 252°
2026-05-07 01:46 40.20392 -74.50669 23932 ft 340 kts 258°
2026-05-07 01:46 40.20066 -74.52676 24226 ft 340 kts 261°
2026-05-07 01:46 40.19612 -74.56801 24828 ft 342 kts 264°
2026-05-07 01:46 40.19437 -74.58854 25114 ft 343 kts 264°
2026-05-07 01:47 40.19128 -74.62977 25708 ft 344 kts 265°
2026-05-07 01:47 40.18977 -74.65090 26015 ft 345 kts 265°
2026-05-07 01:47 40.18752 -74.68229 26467 ft 346 kts 265°
2026-05-07 01:47 40.18522 -74.71335 26906 ft 348 kts 265°
2026-05-07 01:48 40.18281 -74.74488 27344 ft 349 kts 265°
2026-05-07 01:48 40.18033 -74.77653 27778 ft 350 kts 264°
2026-05-07 01:48 40.17779 -74.80835 28199 ft 352 kts 264°
2026-05-07 01:48 40.17523 -74.84022 28610 ft 353 kts 264°
2026-05-07 01:49 40.17263 -74.87236 29038 ft 354 kts 264°
2026-05-07 01:49 40.17002 -74.90446 29466 ft 356 kts 264°
2026-05-07 01:49 40.16741 -74.93638 29861 ft 357 kts 264°
2026-05-07 01:49 40.16473 -74.96900 30221 ft 359 kts 264°
2026-05-07 01:50 40.16205 -75.00149 30597 ft 360 kts 264°
2026-05-07 01:50 40.15935 -75.03416 30927 ft 361 kts 264°
2026-05-07 01:50 40.15666 -75.06672 31378 ft 359 kts 264°
2026-05-07 01:50 40.15402 -75.09871 31921 ft 355 kts 264°
2026-05-07 01:51 40.15136 -75.13064 32457 ft 351 kts 264°
2026-05-07 01:51 40.14872 -75.16241 32969 ft 348 kts 264°
2026-05-07 01:51 40.14610 -75.19386 33430 ft 346 kts 264°
2026-05-07 01:51 40.14351 -75.22477 33886 ft 344 kts 264°
2026-05-07 01:52 40.14089 -75.25596 34284 ft 342 kts 264°
2026-05-07 01:52 40.13830 -75.28675 34660 ft 340 kts 265°
2026-05-07 01:52 40.13575 -75.31704 35035 ft 338 kts 265°
2026-05-07 01:52 40.13316 -75.34764 35403 ft 336 kts 265°
2026-05-07 01:53 40.13058 -75.37792 35756 ft 334 kts 265°
2026-05-07 01:53 40.12805 -75.40767 36091 ft 333 kts 265°
2026-05-07 01:53 40.12548 -75.43769 36457 ft 330 kts 265°
2026-05-07 01:53 40.12292 -75.46741 36932 ft 325 kts 265°
2026-05-07 01:54 40.12039 -75.49666 37314 ft 323 kts 265°
2026-05-07 01:54 40.11788 -75.52581 37623 ft 322 kts 265°
2026-05-07 01:54 40.11537 -75.55486 37901 ft 321 kts 265°
2026-05-07 01:54 40.11290 -75.58338 38173 ft 320 kts 266°
2026-05-07 01:55 40.11039 -75.61224 38468 ft 319 kts 266°
2026-05-07 01:55 40.10787 -75.64097 38698 ft 318 kts 266°
2026-05-07 01:55 40.10535 -75.66984 38837 ft 319 kts 266°
2026-05-07 01:55 40.10281 -75.69879 38950 ft 321 kts 265°
2026-05-07 01:56 40.10026 -75.72784 39074 ft 322 kts 265°
2026-05-07 01:56 40.09759 -75.75703 39203 ft 324 kts 264°
2026-05-07 01:56 40.09351 -75.78570 39355 ft 327 kts 260°
2026-05-07 01:56 40.08714 -75.81434 39501 ft 330 kts 256°
2026-05-07 01:57 40.07825 -75.84231 39626 ft 336 kts 251°
2026-05-07 01:57 40.06675 -75.86934 39758 ft 341 kts 247°
2026-05-07 01:57 40.05405 -75.89577 39865 ft 344 kts 246°
2026-05-07 01:58 40.02738 -75.94820 39874 ft 350 kts 246°
2026-05-07 01:58 40.00006 -76.00106 39876 ft 352 kts 246°
2026-05-07 01:59 39.97297 -76.05383 39876 ft 351 kts 246°
2026-05-07 01:59 39.94586 -76.10693 39881 ft 351 kts 246°
2026-05-07 02:00 39.91877 -76.16005 39913 ft 351 kts 245°
2026-05-07 02:00 39.89197 -76.21244 39883 ft 347 kts 245°
2026-05-07 02:01 39.86532 -76.26447 39886 ft 347 kts 245°
2026-05-07 02:01 39.83849 -76.31681 39883 ft 347 kts 245°
2026-05-07 02:02 39.81157 -76.36920 39892 ft 348 kts 245°
2026-05-07 02:02 39.78466 -76.42149 39892 ft 348 kts 245°
2026-05-07 02:03 39.75773 -76.47371 39897 ft 347 kts 245°
2026-05-07 02:03 39.73087 -76.52571 39896 ft 347 kts 245°
2026-05-07 02:04 39.70395 -76.57772 39896 ft 346 kts 245°
2026-05-07 02:04 39.67701 -76.62969 39896 ft 347 kts 245°
2026-05-07 02:05 39.65014 -76.68151 39892 ft 348 kts 245°
2026-05-07 02:05 39.62301 -76.73370 39896 ft 348 kts 245°
2026-05-07 02:06 39.59585 -76.78584 39896 ft 348 kts 245°
2026-05-07 02:06 39.56889 -76.83753 39900 ft 348 kts 245°
2026-05-07 02:07 39.54167 -76.88965 39919 ft 348 kts 245°
2026-05-07 02:07 39.50007 -76.96619 39913 ft 352 kts 241°
2026-05-07 02:08 39.46418 -77.01165 39916 ft 367 kts 233°
2026-05-07 02:08 39.42462 -77.05403 39916 ft 370 kts 232°
2026-05-07 02:09 39.38457 -77.09555 39932 ft 371 kts 232°
2026-05-07 02:09 39.34436 -77.13731 39920 ft 370 kts 232°
2026-05-07 02:10 39.30427 -77.17922 39906 ft 370 kts 232°
2026-05-07 02:10 39.26409 -77.22135 39916 ft 372 kts 232°
2026-05-07 02:11 39.22381 -77.26349 39915 ft 371 kts 232°
2026-05-07 02:11 39.18390 -77.30511 39916 ft 370 kts 232°
2026-05-07 02:12 39.14374 -77.34699 39915 ft 370 kts 232°
2026-05-07 02:12 39.10376 -77.38863 39905 ft 371 kts 232°
2026-05-07 02:13 39.06345 -77.43059 39923 ft 373 kts 232°
2026-05-07 02:13 39.02323 -77.47231 39897 ft 373 kts 232°
2026-05-07 02:14 38.98278 -77.51419 39897 ft 373 kts 232°
2026-05-07 02:14 38.94222 -77.55615 39897 ft 373 kts 232°
2026-05-07 02:15 38.90163 -77.59808 39896 ft 373 kts 232°
2026-05-07 02:15 38.86146 -77.63952 39891 ft 372 kts 232°
2026-05-07 02:16 38.82105 -77.68112 39893 ft 371 kts 232°
2026-05-07 02:16 38.78088 -77.72247 39894 ft 372 kts 232°
2026-05-07 02:17 38.74044 -77.76402 39885 ft 372 kts 232°
2026-05-07 02:17 38.70001 -77.80547 39866 ft 372 kts 232°
2026-05-07 02:18 38.65957 -77.84723 39887 ft 370 kts 234°
2026-05-07 02:18 38.62518 -77.89366 39886 ft 356 kts 242°
2026-05-07 02:19 38.59490 -77.94368 39887 ft 354 kts 244°
2026-05-07 02:19 38.56552 -77.99412 39887 ft 352 kts 243°
2026-05-07 02:20 38.53628 -78.04425 39883 ft 351 kts 243°
2026-05-07 02:20 38.50714 -78.09391 39857 ft 351 kts 243°
2026-05-07 02:21 38.47762 -78.14402 39896 ft 353 kts 243°
2026-05-07 02:21 38.44819 -78.19383 39878 ft 353 kts 243°
2026-05-07 02:22 38.41860 -78.24380 39881 ft 353 kts 243°
2026-05-07 02:22 38.38892 -78.29386 39877 ft 353 kts 243°
2026-05-07 02:23 38.35924 -78.34385 39873 ft 353 kts 243°
2026-05-07 02:23 38.32980 -78.39338 39873 ft 352 kts 243°
2026-05-07 02:24 38.30006 -78.44332 39872 ft 353 kts 243°
2026-05-07 02:24 38.27029 -78.49326 39878 ft 354 kts 243°
2026-05-07 02:25 38.24063 -78.54291 39878 ft 354 kts 243°
2026-05-07 02:25 38.21079 -78.59278 39876 ft 354 kts 243°
2026-05-07 02:26 38.18113 -78.64226 39878 ft 353 kts 243°
2026-05-07 02:26 38.15127 -78.69194 39881 ft 352 kts 243°
2026-05-07 02:27 38.12144 -78.74162 39876 ft 353 kts 243°
2026-05-07 02:27 38.09187 -78.79080 39900 ft 353 kts 243°
2026-05-07 02:28 38.06199 -78.84041 39902 ft 353 kts 243°
2026-05-07 02:28 38.03710 -78.88164 39908 ft 353 kts 243°
2026-05-07 02:29 38.00239 -78.93909 39898 ft 353 kts 243°
2026-05-07 02:29 37.97751 -78.98019 39889 ft 353 kts 243°
2026-05-07 02:30 37.94759 -79.02956 39894 ft 353 kts 243°
2026-05-07 02:30 37.91761 -79.07893 39919 ft 352 kts 243°
2026-05-07 02:31 37.88639 -79.12676 39953 ft 356 kts 239°
2026-05-07 02:31 37.85290 -79.17348 39987 ft 357 kts 239°
2026-05-07 02:32 37.81965 -79.21970 40008 ft 356 kts 239°
2026-05-07 02:32 37.78621 -79.26617 40032 ft 356 kts 239°
2026-05-07 02:33 37.75303 -79.31219 40042 ft 356 kts 239°
2026-05-07 02:33 37.71961 -79.35855 40043 ft 356 kts 239°
2026-05-07 02:34 37.68612 -79.40491 40034 ft 357 kts 239°
2026-05-07 02:34 37.65278 -79.45099 40015 ft 357 kts 239°
2026-05-07 02:35 37.61934 -79.49708 39998 ft 355 kts 239°
2026-05-07 02:35 37.58595 -79.54312 39969 ft 355 kts 239°
2026-05-07 02:36 37.55257 -79.58909 39939 ft 355 kts 239°
2026-05-07 02:36 37.51937 -79.63474 39904 ft 354 kts 239°
2026-05-07 02:37 37.48599 -79.68053 39912 ft 354 kts 239°
2026-05-07 02:37 37.45257 -79.72634 39929 ft 355 kts 239°
2026-05-07 02:38 37.41923 -79.77199 39940 ft 356 kts 239°
2026-05-07 02:38 37.38561 -79.81784 39945 ft 355 kts 238°
2026-05-07 02:39 37.35206 -79.86366 39950 ft 354 kts 238°
2026-05-07 02:39 37.31883 -79.90895 39954 ft 354 kts 238°
2026-05-07 02:40 37.28534 -79.95454 39920 ft 354 kts 239°
2026-05-07 02:40 37.25192 -79.99997 39930 ft 357 kts 239°
2026-05-07 02:41 37.21809 -80.04587 39946 ft 357 kts 239°
2026-05-07 02:41 37.18427 -80.09167 39962 ft 357 kts 239°
2026-05-07 02:42 37.15061 -80.13719 39975 ft 357 kts 239°
2026-05-07 02:42 37.11675 -80.18295 39983 ft 357 kts 238°
2026-05-07 02:43 37.08301 -80.22846 39986 ft 356 kts 238°
2026-05-07 02:43 37.04927 -80.27392 39988 ft 357 kts 238°
2026-05-07 02:44 37.01543 -80.31923 39983 ft 359 kts 238°
2026-05-07 02:44 36.98051 -80.36416 39974 ft 360 kts 237°
2026-05-07 02:45 36.94539 -80.40910 39959 ft 360 kts 237°
2026-05-07 02:45 36.91051 -80.45368 39943 ft 360 kts 237°
2026-05-07 02:46 36.87548 -80.49842 39930 ft 360 kts 237°
2026-05-07 02:46 36.84037 -80.54320 39941 ft 361 kts 237°
2026-05-07 02:47 36.80537 -80.58777 39934 ft 360 kts 237°
2026-05-07 02:47 36.77043 -80.63219 40000 ft 359 kts 237°
2026-05-07 02:48 36.73536 -80.67675 40034 ft 359 kts 237°
2026-05-07 02:48 36.70025 -80.72128 40022 ft 359 kts 237°
2026-05-07 02:49 36.66531 -80.76553 40018 ft 359 kts 237°
2026-05-07 02:49 36.63017 -80.80997 39982 ft 359 kts 237°
2026-05-07 02:50 36.59515 -80.85424 39999 ft 361 kts 237°
2026-05-07 02:50 36.55975 -80.89889 39916 ft 362 kts 237°
2026-05-07 02:51 36.52423 -80.94360 39932 ft 363 kts 237°
2026-05-07 02:51 36.48901 -80.98786 39956 ft 361 kts 237°
2026-05-07 02:52 36.45366 -81.03219 39977 ft 360 kts 237°
2026-05-07 02:52 36.41832 -81.07652 39999 ft 360 kts 237°
2026-05-07 02:53 36.38325 -81.12050 40013 ft 361 kts 237°
2026-05-07 02:53 36.34787 -81.16477 40031 ft 361 kts 237°
2026-05-07 02:54 36.31244 -81.20903 40035 ft 361 kts 237°
2026-05-07 02:54 36.27703 -81.25331 40032 ft 361 kts 237°
2026-05-07 02:55 36.24163 -81.29755 40020 ft 360 kts 237°
2026-05-07 02:55 36.20653 -81.34135 39996 ft 359 kts 237°
2026-05-07 02:56 36.17134 -81.38523 39976 ft 359 kts 237°
2026-05-07 02:56 36.13593 -81.42921 39953 ft 359 kts 237°
2026-05-07 02:57 36.10064 -81.47308 39930 ft 359 kts 238°
2026-05-07 02:57 36.06591 -81.51701 39921 ft 359 kts 238°
2026-05-07 02:58 36.03079 -81.56090 39922 ft 359 kts 238°
2026-05-07 02:58 35.99560 -81.60453 39918 ft 359 kts 238°
2026-05-07 02:59 35.96020 -81.64829 39907 ft 359 kts 238°
2026-05-07 02:59 35.92452 -81.69171 39917 ft 360 kts 236°
2026-05-07 03:00 35.88897 -81.73475 39924 ft 359 kts 236°
2026-05-07 03:00 35.85369 -81.77789 39989 ft 358 kts 236°
2026-05-07 03:01 35.81830 -81.82128 39981 ft 358 kts 236°
2026-05-07 03:01 35.78273 -81.86462 39967 ft 359 kts 236°
2026-05-07 03:02 35.74706 -81.90739 39960 ft 359 kts 236°
2026-05-07 03:02 35.71117 -81.95034 39949 ft 359 kts 236°
2026-05-07 03:03 35.67519 -81.99335 39951 ft 359 kts 236°
2026-05-07 03:03 35.63952 -82.03595 39958 ft 359 kts 236°
2026-05-07 03:04 35.60360 -82.07880 39969 ft 359 kts 236°
2026-05-07 03:04 35.56767 -82.12162 39963 ft 359 kts 236°
2026-05-07 03:05 35.53177 -82.16439 39968 ft 360 kts 236°
2026-05-07 03:05 35.49608 -82.20660 39777 ft 351 kts 236°
2026-05-07 03:06 35.47869 -82.22714 39605 ft 343 kts 236°
2026-05-07 03:06 35.46169 -82.24704 39225 ft 339 kts 236°
2026-05-07 03:06 35.44480 -82.26682 38885 ft 333 kts 236°
2026-05-07 03:06 35.42823 -82.28661 38554 ft 330 kts 237°
2026-05-07 03:07 35.41212 -82.30650 38164 ft 326 kts 237°
2026-05-07 03:07 35.39629 -82.32636 37875 ft 330 kts 237°
2026-05-07 03:07 35.37996 -82.34694 37611 ft 342 kts 236°
2026-05-07 03:07 35.36317 -82.36801 37361 ft 355 kts 236°
2026-05-07 03:08 35.34559 -82.38995 37097 ft 363 kts 235°
2026-05-07 03:08 35.32783 -82.41194 36850 ft 361 kts 234°
2026-05-07 03:08 35.31030 -82.43351 36624 ft 353 kts 234°
2026-05-07 03:08 35.29313 -82.45468 36280 ft 348 kts 234°
2026-05-07 03:09 35.27615 -82.47568 35926 ft 344 kts 234°
2026-05-07 03:09 35.25934 -82.49649 35487 ft 342 kts 234°
2026-05-07 03:09 35.24276 -82.51706 35169 ft 346 kts 234°
2026-05-07 03:09 35.22568 -82.53826 34748 ft 352 kts 233°
2026-05-07 03:10 35.20825 -82.55984 34329 ft 357 kts 233°
2026-05-07 03:10 35.19069 -82.58153 33858 ft 360 kts 232°
2026-05-07 03:10 35.17297 -82.60339 33358 ft 363 kts 232°
2026-05-07 03:10 35.15493 -82.62534 32873 ft 367 kts 231°
2026-05-07 03:11 35.13657 -82.64726 32397 ft 371 kts 231°
2026-05-07 03:11 35.11821 -82.66909 31923 ft 374 kts 231°
2026-05-07 03:11 35.09942 -82.69139 31426 ft 378 kts 231°
2026-05-07 03:11 35.08045 -82.71390 30907 ft 381 kts 230°
2026-05-07 03:12 35.06137 -82.73650 30549 ft 381 kts 230°
2026-05-07 03:12 35.04235 -82.75901 30213 ft 380 kts 230°
2026-05-07 03:12 35.02337 -82.78150 29804 ft 380 kts 229°
2026-05-07 03:12 35.00448 -82.80386 29472 ft 384 kts 230°
2026-05-07 03:13 34.98526 -82.82661 29125 ft 385 kts 229°
2026-05-07 03:13 34.96596 -82.84940 28764 ft 384 kts 229°
2026-05-07 03:13 34.94684 -82.87198 28405 ft 381 kts 229°
2026-05-07 03:13 34.93419 -82.88682 28171 ft 380 kts 229°
2026-05-07 03:14 34.91500 -82.90912 27812 ft 379 kts 229°
2026-05-07 03:14 34.89594 -82.93120 27455 ft 377 kts 229°
2026-05-07 03:14 34.85801 -82.97511 26758 ft 374 kts 229°
2026-05-07 03:15 34.83940 -82.99663 26406 ft 372 kts 229°
2026-05-07 03:15 34.82063 -83.01833 26052 ft 371 kts 229°
2026-05-07 03:15 34.80194 -83.03992 25692 ft 369 kts 229°
2026-05-07 03:15 34.78335 -83.06138 25319 ft 368 kts 229°
2026-05-07 03:16 34.76464 -83.08301 24982 ft 373 kts 229°
2026-05-07 03:16 34.74577 -83.10480 24613 ft 374 kts 229°
2026-05-07 03:16 34.72693 -83.12649 24272 ft 372 kts 229°
2026-05-07 03:16 34.70817 -83.14806 23915 ft 370 kts 229°
2026-05-07 03:17 34.68949 -83.16955 23557 ft 367 kts 230°
2026-05-07 03:17 34.67104 -83.19073 23160 ft 362 kts 230°
2026-05-07 03:17 34.65308 -83.21135 22820 ft 356 kts 230°
2026-05-07 03:17 34.63505 -83.23207 22476 ft 356 kts 229°
2026-05-07 03:18 34.61702 -83.25280 22140 ft 356 kts 229°
2026-05-07 03:18 34.59902 -83.27345 21782 ft 354 kts 229°
2026-05-07 03:18 34.58106 -83.29404 21443 ft 353 kts 229°
2026-05-07 03:18 34.56329 -83.31442 21104 ft 351 kts 229°
2026-05-07 03:19 34.54579 -83.33452 20742 ft 349 kts 230°
2026-05-07 03:19 34.52828 -83.35463 20429 ft 343 kts 230°
2026-05-07 03:19 34.51101 -83.37448 20093 ft 341 kts 230°
2026-05-07 03:19 34.49375 -83.39435 19756 ft 342 kts 230°
2026-05-07 03:20 34.47651 -83.41417 19415 ft 341 kts 230°
2026-05-07 03:20 34.45923 -83.43402 19077 ft 341 kts 230°
2026-05-07 03:20 34.44201 -83.45378 18715 ft 340 kts 230°
2026-05-07 03:20 34.42508 -83.47320 18395 ft 338 kts 230°
2026-05-07 03:21 34.40796 -83.49282 18061 ft 337 kts 230°
2026-05-07 03:21 34.39095 -83.51230 17722 ft 336 kts 229°
2026-05-07 03:21 34.37399 -83.53172 17386 ft 334 kts 229°
2026-05-07 03:21 34.35713 -83.55099 17058 ft 332 kts 229°
2026-05-07 03:22 34.34034 -83.57018 16731 ft 330 kts 229°
2026-05-07 03:22 34.32382 -83.58907 16416 ft 329 kts 229°
2026-05-07 03:22 34.30716 -83.60811 16076 ft 328 kts 227°
2026-05-07 03:22 34.29053 -83.62688 15766 ft 328 kts 226°
2026-05-07 03:23 34.27353 -83.64527 15444 ft 327 kts 225°
2026-05-07 03:23 34.25653 -83.66341 15127 ft 325 kts 225°
2026-05-07 03:23 34.23958 -83.68145 14795 ft 323 kts 225°
2026-05-07 03:23 34.22294 -83.69914 14499 ft 321 kts 225°
2026-05-07 03:24 34.20619 -83.71694 14177 ft 320 kts 225°
2026-05-07 03:24 34.18951 -83.73468 13859 ft 318 kts 224°
2026-05-07 03:24 34.17293 -83.75229 13511 ft 316 kts 224°
2026-05-07 03:24 34.15645 -83.76980 13182 ft 314 kts 224°
2026-05-07 03:25 34.14005 -83.78721 12872 ft 312 kts 224°
2026-05-07 03:25 34.12376 -83.80450 12555 ft 310 kts 224°
2026-05-07 03:25 34.10759 -83.82164 12231 ft 308 kts 224°
2026-05-07 03:25 34.09137 -83.83894 11985 ft 318 kts 224°
2026-05-07 03:26 34.07496 -83.85655 11707 ft 314 kts 224°
2026-05-07 03:26 34.05911 -83.87350 11413 ft 294 kts 224°
2026-05-07 03:26 34.04427 -83.88938 11154 ft 276 kts 224°
2026-05-07 03:26 34.03009 -83.90461 10892 ft 269 kts 225°
2026-05-07 03:27 34.01641 -83.91929 10634 ft 263 kts 225°
2026-05-07 03:27 34.00288 -83.93381 10358 ft 259 kts 225°
2026-05-07 03:27 33.98941 -83.94824 10103 ft 258 kts 224°
2026-05-07 03:27 33.97472 -83.96088 9772 ft 262 kts 211°
2026-05-07 03:28 33.95703 -83.96705 9474 ft 270 kts 192°
2026-05-07 03:28 33.93815 -83.96748 9215 ft 272 kts 185°
2026-05-07 03:28 33.91986 -83.96979 8955 ft 261 kts 204°
2026-05-07 03:28 33.90431 -83.98020 8701 ft 254 kts 219°
2026-05-07 03:29 33.89036 -83.99332 8460 ft 253 kts 222°
2026-05-07 03:29 33.87678 -84.00671 8207 ft 252 kts 222°
2026-05-07 03:29 33.86343 -84.01999 7925 ft 251 kts 222°
2026-05-07 03:29 33.84999 -84.03341 7622 ft 249 kts 222°
2026-05-07 03:30 33.83663 -84.04673 7331 ft 249 kts 222°
2026-05-07 03:30 33.82333 -84.06004 7055 ft 247 kts 222°
2026-05-07 03:30 33.81036 -84.07311 6760 ft 246 kts 223°
2026-05-07 03:30 33.79709 -84.08615 6498 ft 245 kts 221°
2026-05-07 03:31 33.78389 -84.09887 6209 ft 241 kts 222°
2026-05-07 03:31 33.77102 -84.11150 5898 ft 236 kts 221°
2026-05-07 03:31 33.75856 -84.12422 5616 ft 232 kts 223°
2026-05-07 03:31 33.74635 -84.13660 5321 ft 227 kts 222°
2026-05-07 03:32 33.73441 -84.14877 5094 ft 223 kts 221°
2026-05-07 03:32 33.72078 -84.15719 4860 ft 224 kts 195°
2026-05-07 03:32 33.70543 -84.15679 4656 ft 222 kts 178°
2026-05-07 03:32 33.69069 -84.15668 4414 ft 204 kts 199°
2026-05-07 03:33 33.67820 -84.16349 4204 ft 192 kts 212°
2026-05-07 03:33 33.66694 -84.17182 4002 ft 187 kts 214°
2026-05-07 03:33 33.65648 -84.18063 3801 ft 180 kts 226°
2026-05-07 03:33 33.65109 -84.19393 3613 ft 177 kts 250°
2026-05-07 03:34 33.64963 -84.20826 3466 ft 172 kts 261°
2026-05-07 03:34 33.64954 -84.22264 3461 ft 172 kts 262°
2026-05-07 03:34 33.64957 -84.23706 3465 ft 173 kts 261°
2026-05-07 03:34 33.64960 -84.25144 3460 ft 171 kts 260°
2026-05-07 03:35 33.64964 -84.26548 3326 ft 165 kts 260°
2026-05-07 03:35 33.64957 -84.27897 3093 ft 157 kts 260°
2026-05-07 03:35 33.64955 -84.29144 2900 ft 145 kts 259°
2026-05-07 03:35 33.64957 -84.30317 2725 ft 137 kts 258°
2026-05-07 03:36 33.64954 -84.31464 2552 ft 135 kts 259°
2026-05-07 03:36 33.64955 -84.32585 2361 ft 134 kts 258°
2026-05-07 03:36 33.64953 -84.33707 2195 ft 134 kts 260°
2026-05-07 03:36 33.64953 -84.34808 2027 ft 133 kts 261°
2026-05-07 03:37 33.64954 -84.35924 1841 ft 133 kts 261°
2026-05-07 03:37 33.64953 -84.37037 1676 ft 133 kts 263°
2026-05-07 03:37 33.64952 -84.38145 1496 ft 134 kts 264°
2026-05-07 03:37 33.64953 -84.39240 1322 ft 131 kts 267°
2026-05-07 03:38 33.64954 -84.40341 1145 ft 132 kts 264°
2026-05-07 03:38 33.64948 -84.41433 1010 ft 125 kts 268°
2026-05-07 03:38 33.64958 -84.42159 1011 ft 45 kts 270°
2026-05-07 03:38 33.64957 -84.42460 1010 ft 34 kts 269°
2026-05-07 03:39 33.64954 -84.42733 1010 ft 31 kts 271°
2026-05-07 03:39 33.65026 -84.42904 1010 ft 14 kts 355°
2026-05-07 03:39 33.65066 -84.42821 1010 ft 11 kts 90°
2026-05-07 03:39 33.65066 -84.42756 1010 ft 9 kts 90°
2026-05-07 03:40 33.65065 -84.42676 1010 ft 10 kts 90°
2026-05-07 03:40 33.65065 -84.42586 1010 ft 12 kts 90°
2026-05-07 03:40 33.65064 -84.42483 1011 ft 13 kts 91°
2026-05-07 03:40 33.65062 -84.42366 1011 ft 15 kts 91°
2026-05-07 03:41 33.65062 -84.42257 1011 ft 13 kts 89°
2026-05-07 03:41 33.65065 -84.42140 1010 ft 15 kts 88°
2026-05-07 03:41 33.65068 -84.42007 1010 ft 16 kts 90°
2026-05-07 03:41 33.65107 -84.41893 1010 ft 16 kts 19°
2026-05-07 03:42 33.65223 -84.41883 1010 ft 18 kts 10°
2026-05-07 03:42 33.65341 -84.41825 1010 ft 19 kts 30°
2026-05-07 03:42 33.65421 -84.41712 1010 ft 18 kts 98°
2026-05-07 03:42 33.65390 -84.41605 1010 ft 7 kts 65°
2026-05-07 03:43 33.65429 -84.41565 1010 ft 5 kts 36°
2026-05-07 03:43 33.65443 -84.41555 1010 ft 0 kts 31°